OPS 4682 DEB, 55120

Orbit data source: Space-Track

OPS 4682 DEB, 55120 is space debris in LEO originally from a launch on Sat, 03 Apr 1965 UTC launched from the Air Force Western Test Range (AFWTR). Debris objects in space refer to the collection of defunct objects orbiting the Earth. Examples of debris include non-operational satellites, rocket bodies, and fragments generated from explosions, collisions, or faulty payload assembly.

Loading next visibility...
Identifier
55120, 1965-027HK
Orbit
LEO
Country
Flag of USUS
Related business
Manufacturer
Unknown
Mission
Spacecraft
Bus & Motor
Unknown
Mass
Unknown
Launch date (UTC)
1965-04-03 (61 years ago)
Launch vehicle
Unknown
Launch site
Air Force Western Test Range (AFWTR)
Object type
Payload
Rocket body
Debris
Shape & HBR
Unknown
Radar Cross Section
Small (<0.1 m²)

Expand to show TLE details & history
Last TLE update: 4 days ago

TLE from 4 days ago
0 OPS 4682 DEB
1 55120U 65027HK  26204.18888765  .00000024  00000-0  55644-4 0  9992
2 55120  90.2494  18.0652 0026432  27.5241 332.7273 12.97224579329305
Epoch: 2026-07-23T04:31Z
TLE epoch observation values (Epoch: 2026-07-23T04:31:59.892Z)
Latitude
-0.00003°
Longitude
9.1322°
Altitude
1,257.892 km
Speed
7.235 km/s
True Right ascension
01h 12m 15s
True Declination
0° 00' 00"
Sunlit
Object was in daylight at epoch
Visualization orbit readout
Latitude
Unknown
Longitude
Unknown
Altitude
Unknown
Speed
Unknown
Apparent Right ascension
Unknown
Apparent Declination
Unknown
Sunlit
N/A
Visualization observer readout
Local Sidereal Time
00:01:01
Azimuth
Unknown
Elevation
Unknown
Doppler factor
Unknown
Orbital elements
Apogee altitude
1,290.327 km
Perigee altitude
1,249.896 km
Semi-major axis
7,648.248 km
Eccentricity
0.00264
Inclination
90.2494°
RAAN
18.0652°
Arg. of periapsis
27.5241°
True anomaly
332.5881°
Mean anomaly
332.7273°
Eccentric anomaly
332.65774°
Mean motion
3.24489 °/min
Orbital period
110.94 mins
BSTAR
0.000055644
Loading maneuver chart data...
Computing Atmospheric mass density...
Loading historical data...
Loading historical data...
Loading historical data...
Loading historical data...
Loading historical data...
Loading historical data...
Loading historical data...

Documentation

Showing up to 5 results
|